BTO5107 SARC-SARP

Flight info

Callsign BTO5107
Flight time N/A
Altitude 5500
Route D
Aircraft C172/L-S/L

Departure

Time N/A
Airport Corrientes Airport (SARC)

Arrival

Time 2026-04-17 10:56
Airport Libertador Gral D Jose De San Martin Airport (SARP)
Time Latitude Longitude Altitude Speed Heading
2026-04-17 10:09 -27.42454 -57.26977 4023 ft 124 kts 86°
2026-04-17 10:10 -27.42429 -57.26007 4028 ft 123 kts 86°
2026-04-17 10:10 -27.42405 -57.25032 4034 ft 123 kts 86°
2026-04-17 10:10 -27.42380 -57.24068 4040 ft 123 kts 86°
2026-04-17 10:11 -27.42331 -57.22137 4051 ft 123 kts 86°
2026-04-17 10:11 -27.42306 -57.21185 4057 ft 123 kts 86°
2026-04-17 10:11 -27.42281 -57.20222 4063 ft 122 kts 87°
2026-04-17 10:11 -27.42255 -57.19259 4045 ft 124 kts 88°
2026-04-17 10:12 -27.42230 -57.18282 4039 ft 123 kts 88°
2026-04-17 10:12 -27.42206 -57.17326 4040 ft 123 kts 88°
2026-04-17 10:12 -27.42181 -57.16371 4042 ft 122 kts 88°
2026-04-17 10:12 -27.42156 -57.15405 4045 ft 122 kts 88°
2026-04-17 10:13 -27.42131 -57.14446 4047 ft 122 kts 88°
2026-04-17 10:13 -27.42106 -57.13500 4049 ft 122 kts 88°
2026-04-17 10:13 -27.42081 -57.12544 4051 ft 122 kts 88°
2026-04-17 10:13 -27.42056 -57.11579 4053 ft 122 kts 88°
2026-04-17 10:14 -27.42031 -57.10628 4054 ft 122 kts 88°
2026-04-17 10:14 -27.42006 -57.09675 4054 ft 122 kts 88°
2026-04-17 10:14 -27.41981 -57.08722 4054 ft 122 kts 88°
2026-04-17 10:14 -27.41955 -57.07761 4054 ft 122 kts 88°
2026-04-17 10:15 -27.41929 -57.06801 4054 ft 122 kts 88°
2026-04-17 10:15 -27.41904 -57.05844 4054 ft 122 kts 88°
2026-04-17 10:15 -27.41878 -57.04874 4054 ft 122 kts 88°
2026-04-17 10:15 -27.41852 -57.03914 4054 ft 122 kts 88°
2026-04-17 10:16 -27.41827 -57.02967 4054 ft 122 kts 88°
2026-04-17 10:16 -27.41801 -57.02005 4054 ft 122 kts 88°
2026-04-17 10:16 -27.41775 -57.01045 4054 ft 122 kts 88°
2026-04-17 10:16 -27.41748 -57.00082 4054 ft 122 kts 88°
2026-04-17 10:17 -27.41722 -56.99124 4054 ft 123 kts 88°
2026-04-17 10:17 -27.41696 -56.98167 4054 ft 123 kts 88°
2026-04-17 10:17 -27.41670 -56.97196 4054 ft 123 kts 88°
2026-04-17 10:17 -27.41643 -56.96243 4054 ft 123 kts 88°
2026-04-17 10:18 -27.41617 -56.95285 4054 ft 123 kts 88°
2026-04-17 10:18 -27.41590 -56.94311 4054 ft 123 kts 88°
2026-04-17 10:18 -27.41564 -56.93350 4054 ft 123 kts 88°
2026-04-17 10:18 -27.41537 -56.92397 4053 ft 123 kts 88°
2026-04-17 10:19 -27.41510 -56.91430 4054 ft 123 kts 88°
2026-04-17 10:19 -27.41484 -56.90474 4053 ft 123 kts 88°
2026-04-17 10:19 -27.41457 -56.89504 4053 ft 123 kts 88°
2026-04-17 10:19 -27.41430 -56.88544 4053 ft 123 kts 88°
2026-04-17 10:20 -27.41403 -56.87579 4053 ft 123 kts 88°
2026-04-17 10:20 -27.41375 -56.86612 4053 ft 123 kts 88°
2026-04-17 10:20 -27.41348 -56.85650 4053 ft 123 kts 88°
2026-04-17 10:20 -27.41321 -56.84681 4053 ft 123 kts 88°
2026-04-17 10:21 -27.41294 -56.83725 4053 ft 123 kts 88°
2026-04-17 10:21 -27.41266 -56.82755 4053 ft 123 kts 88°
2026-04-17 10:21 -27.41239 -56.81799 4053 ft 123 kts 88°
2026-04-17 10:21 -27.41211 -56.80828 4053 ft 123 kts 88°
2026-04-17 10:22 -27.41184 -56.79868 4053 ft 123 kts 88°
2026-04-17 10:22 -27.41156 -56.78909 4053 ft 123 kts 88°
2026-04-17 10:22 -27.41128 -56.77943 4053 ft 123 kts 88°
2026-04-17 10:22 -27.41100 -56.76973 4053 ft 123 kts 88°
2026-04-17 10:23 -27.41073 -56.76010 4053 ft 123 kts 88°
2026-04-17 10:23 -27.41045 -56.75048 4053 ft 123 kts 88°
2026-04-17 10:23 -27.41017 -56.74084 4053 ft 123 kts 88°
2026-04-17 10:23 -27.40989 -56.73125 4053 ft 123 kts 88°
2026-04-17 10:24 -27.40961 -56.72163 4053 ft 123 kts 88°
2026-04-17 10:24 -27.40933 -56.71195 4053 ft 123 kts 88°
2026-04-17 10:24 -27.40904 -56.70227 4053 ft 123 kts 88°
2026-04-17 10:24 -27.40876 -56.69261 4053 ft 123 kts 88°
2026-04-17 10:25 -27.40848 -56.68303 4053 ft 123 kts 88°
2026-04-17 10:25 -27.40819 -56.67334 4053 ft 123 kts 88°
2026-04-17 10:25 -27.40791 -56.66376 4053 ft 123 kts 88°
2026-04-17 10:25 -27.40762 -56.65408 4053 ft 123 kts 88°
2026-04-17 10:26 -27.40733 -56.64440 4053 ft 123 kts 88°
2026-04-17 10:26 -27.40705 -56.63485 4053 ft 123 kts 88°
2026-04-17 10:26 -27.40676 -56.62516 4053 ft 123 kts 88°
2026-04-17 10:26 -27.40647 -56.61551 4053 ft 123 kts 88°
2026-04-17 10:27 -27.40618 -56.60596 4053 ft 123 kts 88°
2026-04-17 10:27 -27.40589 -56.59628 4053 ft 123 kts 88°
2026-04-17 10:27 -27.40560 -56.58661 4053 ft 123 kts 88°
2026-04-17 10:27 -27.40531 -56.57703 4053 ft 123 kts 88°
2026-04-17 10:28 -27.40502 -56.56740 4053 ft 123 kts 88°
2026-04-17 10:28 -27.40473 -56.55774 4053 ft 123 kts 88°
2026-04-17 10:28 -27.40443 -56.54802 4053 ft 123 kts 88°
2026-04-17 10:28 -27.40414 -56.53842 4053 ft 123 kts 88°
2026-04-17 10:29 -27.40384 -56.52875 4053 ft 123 kts 88°
2026-04-17 10:29 -27.40355 -56.51915 4053 ft 123 kts 88°
2026-04-17 10:29 -27.40325 -56.50952 4053 ft 123 kts 88°
2026-04-17 10:29 -27.40295 -56.49992 4053 ft 123 kts 88°
2026-04-17 10:30 -27.40264 -56.49020 4053 ft 123 kts 88°
2026-04-17 10:30 -27.40235 -56.48065 4053 ft 123 kts 88°
2026-04-17 10:30 -27.40205 -56.47103 4053 ft 123 kts 88°
2026-04-17 10:30 -27.40175 -56.46133 4053 ft 123 kts 88°
2026-04-17 10:31 -27.40145 -56.45171 4053 ft 123 kts 88°
2026-04-17 10:31 -27.40115 -56.44201 4053 ft 123 kts 88°
2026-04-17 10:31 -27.40085 -56.43241 4053 ft 123 kts 88°
2026-04-17 10:31 -27.40054 -56.42273 4053 ft 123 kts 88°
2026-04-17 10:32 -27.40025 -56.41320 4053 ft 123 kts 88°
2026-04-17 10:32 -27.39994 -56.40354 4053 ft 123 kts 88°
2026-04-17 10:32 -27.39963 -56.39385 4053 ft 123 kts 88°
2026-04-17 10:32 -27.39933 -56.38429 4053 ft 123 kts 88°
2026-04-17 10:33 -27.39903 -56.37456 4053 ft 123 kts 88°
2026-04-17 10:33 -27.39872 -56.36492 4053 ft 123 kts 88°
2026-04-17 10:33 -27.39841 -56.35529 4053 ft 123 kts 88°
2026-04-17 10:33 -27.39811 -56.34565 4054 ft 123 kts 88°
2026-04-17 10:34 -27.39780 -56.33598 4054 ft 123 kts 88°
2026-04-17 10:34 -27.39749 -56.32643 4054 ft 123 kts 88°
2026-04-17 10:34 -27.39718 -56.31675 4054 ft 123 kts 88°
2026-04-17 10:34 -27.39687 -56.30711 4054 ft 123 kts 88°
2026-04-17 10:35 -27.39656 -56.29745 4054 ft 123 kts 88°
2026-04-17 10:35 -27.39625 -56.28775 4054 ft 123 kts 88°
2026-04-17 10:35 -27.39594 -56.27809 4054 ft 123 kts 88°
2026-04-17 10:35 -27.39563 -56.26855 4054 ft 123 kts 88°
2026-04-17 10:36 -27.39531 -56.25886 4054 ft 123 kts 88°
2026-04-17 10:36 -27.39500 -56.24926 4054 ft 123 kts 88°
2026-04-17 10:36 -27.39468 -56.23954 4054 ft 123 kts 88°
2026-04-17 10:36 -27.39437 -56.22997 4054 ft 123 kts 88°
2026-04-17 10:37 -27.39405 -56.22031 4054 ft 123 kts 88°
2026-04-17 10:37 -27.39374 -56.21066 4054 ft 123 kts 88°
2026-04-17 10:37 -27.39342 -56.20090 4054 ft 123 kts 88°
2026-04-17 10:37 -27.39310 -56.19130 4054 ft 123 kts 88°
2026-04-17 10:38 -27.39278 -56.18167 4054 ft 123 kts 88°
2026-04-17 10:38 -27.39246 -56.17206 4054 ft 123 kts 88°
2026-04-17 10:38 -27.39214 -56.16239 4054 ft 123 kts 88°
2026-04-17 10:38 -27.39182 -56.15274 4054 ft 123 kts 88°
2026-04-17 10:39 -27.39150 -56.14314 4054 ft 123 kts 88°
2026-04-17 10:39 -27.39118 -56.13350 4054 ft 123 kts 88°
2026-04-17 10:39 -27.39085 -56.12372 4054 ft 123 kts 88°
2026-04-17 10:39 -27.39053 -56.11409 4054 ft 123 kts 88°
2026-04-17 10:40 -27.39021 -56.10453 4054 ft 123 kts 88°
2026-04-17 10:40 -27.38988 -56.09489 4054 ft 123 kts 88°
2026-04-17 10:40 -27.38956 -56.08524 4054 ft 123 kts 88°
2026-04-17 10:40 -27.38923 -56.07555 4054 ft 123 kts 88°
2026-04-17 10:41 -27.38891 -56.06593 4054 ft 123 kts 88°
2026-04-17 10:41 -27.38858 -56.05629 4054 ft 123 kts 88°
2026-04-17 10:41 -27.38825 -56.04665 4054 ft 123 kts 88°
2026-04-17 10:41 -27.38792 -56.03700 4054 ft 123 kts 88°
2026-04-17 10:42 -27.38759 -56.02734 4054 ft 123 kts 88°
2026-04-17 10:42 -27.38726 -56.01763 4054 ft 123 kts 88°
2026-04-17 10:42 -27.38693 -56.00801 4054 ft 123 kts 88°
2026-04-17 10:42 -27.38660 -55.99831 4054 ft 123 kts 88°
2026-04-17 10:43 -27.38627 -55.98866 4054 ft 123 kts 88°
2026-04-17 10:43 -27.38499 -55.97920 4049 ft 124 kts 64°
2026-04-17 10:43 -27.37927 -55.97205 4053 ft 124 kts 38°
2026-04-17 10:43 -27.37169 -55.96731 4053 ft 125 kts 24°
2026-04-17 10:44 -27.36350 -55.96397 4054 ft 126 kts 19°
2026-04-17 10:44 -27.35510 -55.96125 4054 ft 126 kts 16°
2026-04-17 10:44 -27.34648 -55.95877 3980 ft 131 kts 15°
2026-04-17 10:44 -27.33734 -55.95625 3809 ft 139 kts 14°
2026-04-17 10:45 -27.32806 -55.95377 3766 ft 134 kts 14°
2026-04-17 10:45 -27.31918 -55.95142 3764 ft 130 kts 14°
2026-04-17 10:45 -27.31043 -55.94910 3762 ft 128 kts 14°
2026-04-17 10:45 -27.30178 -55.94682 3762 ft 127 kts 14°
2026-04-17 10:46 -27.29308 -55.94452 3761 ft 127 kts 14°
2026-04-17 10:46 -27.28446 -55.94224 3704 ft 131 kts 14°
2026-04-17 10:46 -27.27546 -55.93986 3570 ft 136 kts 14°
2026-04-17 10:46 -27.26600 -55.93735 3422 ft 140 kts 14°
2026-04-17 10:47 -27.25653 -55.93485 3270 ft 138 kts 14°
2026-04-17 10:47 -27.24757 -55.93247 3122 ft 130 kts 14°
2026-04-17 10:47 -27.23903 -55.93021 2982 ft 123 kts 14°
2026-04-17 10:47 -27.23085 -55.92805 2849 ft 118 kts 14°
2026-04-17 10:48 -27.22291 -55.92595 2720 ft 115 kts 14°
2026-04-17 10:48 -27.21522 -55.92516 2655 ft 109 kts 347°
2026-04-17 10:48 -27.20940 -55.92986 2648 ft 101 kts 303°
2026-04-17 10:48 -27.20817 -55.93734 2694 ft 97 kts 259°
2026-04-17 10:49 -27.21152 -55.94348 2658 ft 92 kts 218°
2026-04-17 10:49 -27.21684 -55.94733 2653 ft 89 kts 208°
2026-04-17 10:49 -27.22216 -55.95072 2653 ft 87 kts 207°
2026-04-17 10:49 -27.22743 -55.95403 2653 ft 87 kts 207°
2026-04-17 10:50 -27.23274 -55.95735 2653 ft 87 kts 207°
2026-04-17 10:50 -27.23799 -55.96065 2654 ft 87 kts 207°
2026-04-17 10:50 -27.24331 -55.96398 2654 ft 87 kts 207°
2026-04-17 10:50 -27.24863 -55.96709 2654 ft 87 kts 202°
2026-04-17 10:51 -27.25432 -55.96927 2654 ft 86 kts 193°
2026-04-17 10:51 -27.26026 -55.97057 2654 ft 86 kts 187°
2026-04-17 10:51 -27.26618 -55.97131 2654 ft 86 kts 183°
2026-04-17 10:51 -27.27219 -55.97171 2654 ft 86 kts 181°
2026-04-17 10:52 -27.27815 -55.97190 2654 ft 86 kts 179°
2026-04-17 10:52 -27.28414 -55.97198 2654 ft 86 kts 179°
2026-04-17 10:52 -27.29006 -55.97199 2654 ft 86 kts 178°
2026-04-17 10:52 -27.29607 -55.97196 2654 ft 86 kts 178°
2026-04-17 10:53 -27.30199 -55.97190 2654 ft 86 kts 178°
2026-04-17 10:53 -27.30803 -55.97183 2652 ft 86 kts 178°
2026-04-17 10:53 -27.31399 -55.97175 2653 ft 86 kts 178°
2026-04-17 10:53 -27.31994 -55.97147 2426 ft 105 kts 170°
2026-04-17 10:54 -27.32757 -55.97234 1829 ft 98 kts 185°
2026-04-17 10:54 -27.33279 -55.97156 2111 ft 66 kts 156°
2026-04-17 10:54 -27.33717 -55.96798 2015 ft 87 kts 137°
2026-04-17 10:54 -27.34304 -55.96562 1887 ft 95 kts 179°
2026-04-17 10:55 -27.34957 -55.96724 1763 ft 97 kts 194°
2026-04-17 10:55 -27.35605 -55.96883 1718 ft 91 kts 188°
2026-04-17 10:55 -27.35966 -55.96941 1716 ft 89 kts 187°
2026-04-17 10:55 -27.36539 -55.97052 1333 ft 89 kts 200°
2026-04-17 10:56 -27.37165 -55.97087 729 ft 87 kts 175°
2026-04-17 10:56 -27.37649 -55.97056 563 ft 54 kts 176°
2026-04-17 10:56 -27.37998 -55.97066 463 ft 48 kts 179°
2026-04-17 10:56 -27.38314 -55.97051 435 ft 44 kts 176°
2026-04-17 10:57 -27.38555 -55.97051 434 ft 26 kts 179°
2026-04-17 10:57 -27.38578 -55.97050 434 ft 25 kts 179°
2026-04-17 10:57 -27.38731 -55.97046 434 ft 20 kts 176°
2026-04-17 10:57 -27.38845 -55.97042 434 ft 9 kts 180°
2026-04-17 10:58 -27.38896 -55.97037 434 ft 8 kts 169°
2026-04-17 10:58 -27.38968 -55.97008 434 ft 9 kts 154°
2026-04-17 10:58 -27.39013 -55.96979 434 ft 7 kts 144°
2026-04-17 10:58 -27.39068 -55.96941 434 ft 8 kts 142°
2026-04-17 10:59 -27.39087 -55.96907 434 ft 6 kts 96°
2026-04-17 10:59 -27.39086 -55.96817 434 ft 9 kts 90°
2026-04-17 10:59 -27.39081 -55.96770 434 ft 3 kts 89°
2026-04-17 10:59 -27.39081 -55.96750 434 ft 0 kts 88°